{"data":{"norad_id":60947,"epoch":"2026-09-22T12:31:25.313664Z","epoch_age_seconds":116933,"freshness":"FRESH","line1":"1 60947U 24156C   26265.52182076  .00002026  00000+0  85669-4 0  9993","line2":"2 60947  34.9987 305.9891 0002938 194.8299 165.2330 15.22980893114291","mean_motion":15.22980893,"eccentricity":0.0002938,"inclination_deg":34.9987,"raan_deg":305.9891,"arg_perigee_deg":194.8299,"mean_anomaly_deg":165.233,"bstar":8.5669e-5,"rev_number":11429,"period_min":94.55141601701,"perigee_km":494.83524836612,"apogee_km":498.87499373645,"semimajor_km":6874.9921210513,"source":"CELESTRAK","updated_at":"2026-09-23T09:00:20.757943Z"}}